| time (UTC) | temp F | wind direction | speed MPH | gust MPH | rain 1hr in | rain 24hr in | rain mn in | humidity % | barometer mb |
| 20260510132657 | 70 | 111 | 6.0 | 10.0 | 0.00 | 0.00 | 0.00 | 71 | 1014.4 |
| 20260510131638 | 70 | 108 | 5.0 | 9.0 | 0.00 | 0.00 | 0.00 | 73 | 1014.5 |
| 20260510130638 | 69 | 92 | 4.0 | 8.0 | 0.00 | 0.00 | 0.00 | 72 | 1014.4 |
| 20260510125639 | 69 | 119 | 7.0 | 12.0 | 0.00 | 0.00 | 0.00 | 72 | 1014.1 |
| 20260510124737 | 69 | 107 | 4.0 | 7.0 | 0.00 | 0.00 | 0.00 | 71 | 1014.0 |
| 20260510123753 | 69 | 105 | 5.0 | 7.0 | 0.00 | 0.00 | 0.00 | 73 | 1014.0 |
| 20260510122755 | 69 | 94 | 4.0 | 6.0 | 0.00 | 0.00 | 0.00 | 74 | 1013.9 |
| 20260510121838 | 69 | 87 | 6.0 | 9.0 | 0.00 | 0.00 | 0.00 | 74 | 1013.8 |
| 20260510120840 | 70 | 96 | 6.0 | 8.0 | 0.00 | 0.00 | 0.00 | 73 | 1013.4 |
| 20260510115838 | 70 | 100 | 9.0 | 11.0 | 0.00 | 0.00 | 0.00 | 73 | 1013.2 |
| 20260510114839 | 70 | 114 | 6.0 | 14.0 | 0.00 | 0.00 | 0.00 | 75 | 1013.3 |
| 20260510112937 | 71 | 90 | 10.0 | 13.0 | 0.00 | 0.00 | 0.00 | 75 | 1013.0 |
| 20260510111937 | 71 | 84 | 9.0 | 13.0 | 0.00 | 0.00 | 0.00 | 76 | 1012.8 |
| 20260510110937 | 71 | 92 | 7.0 | 12.0 | 0.00 | 0.00 | 0.00 | 77 | 1012.9 |
| 20260510105939 | 72 | 69 | 8.0 | 12.0 | 0.00 | 0.00 | 0.00 | 78 | 1012.9 |
| 20260510105039 | 72 | 64 | 6.0 | 9.0 | 0.00 | 0.00 | 0.00 | 79 | 1012.8 |
| 20260510104037 | 73 | 67 | 8.0 | 13.0 | 0.00 | 0.00 | 0.00 | 80 | 1012.7 |
| 20260510102055 | 74 | 67 | 6.0 | 9.0 | 0.00 | 0.00 | 0.00 | 80 | 1012.4 |
| 20260510101138 | 73 | 60 | 6.0 | 9.0 | 0.00 | 0.00 | 0.00 | 80 | 1012.2 |
| 20260510100139 | 73 | 85 | 4.0 | 5.0 | 0.00 | 0.00 | 0.00 | 82 | 1012.3 |
| 20260510095139 | 72 | 90 | 5.0 | 7.0 | 0.00 | 0.00 | 0.00 | 81 | 1012.1 |
| 20260510094238 | 72 | 49 | 4.0 | 6.0 | 0.00 | 0.00 | 0.00 | 80 | 1012.1 |
| 20260510093239 | 72 | 67 | 3.0 | 4.0 | 0.00 | 0.00 | 0.00 | 80 | 1011.9 |
| 20260510092254 | 72 | 92 | 0.0 | 3.0 | 0.00 | 0.00 | 0.00 | 80 | 1011.4 |
| 20260510091238 | 72 | 57 | 3.0 | 4.0 | 0.00 | 0.00 | 0.00 | 78 | 1011.3 |
| 20260510085354 | 72 | 22 | 3.0 | 4.0 | 0.00 | 0.00 | 0.00 | 79 | 1011.2 |
| 20260510084437 | 72 | 30 | 1.0 | 2.0 | 0.00 | 0.00 | 0.00 | 79 | 1011.4 |
| 20260510082553 | 73 | 45 | 3.0 | 4.0 | 0.00 | 0.00 | 0.00 | 79 | 1011.0 |
| 20260510081637 | 73 | 90 | 2.0 | 3.0 | 0.00 | 0.00 | 0.00 | 79 | 1010.5 |
| 20260510080639 | 73 | 102 | 1.0 | 5.0 | 0.00 | 0.00 | 0.00 | 77 | 1010.3 |
| 20260510075738 | 74 | 100 | 4.0 | 6.0 | 0.00 | 0.00 | 0.00 | 77 | 1010.1 |
| 20260510074737 | 74 | 117 | 2.0 | 6.0 | 0.00 | 0.00 | 0.00 | 77 | 1009.9 |
| 20260510073755 | 74 | 145 | 6.0 | 9.0 | 0.00 | 0.00 | 0.00 | 77 | 1009.7 |
| 20260510072738 | 74 | 158 | 8.0 | 12.0 | 0.00 | 0.00 | 0.00 | 77 | 1009.7 |
| 20260510071836 | 74 | 160 | 8.0 | 10.0 | 0.00 | 0.00 | 0.00 | 75 | 1009.8 |
| 20260510070836 | 74 | 138 | 5.0 | 6.0 | 0.00 | 0.00 | 0.00 | 73 | 1010.0 |
| 20260510065838 | 74 | 126 | 3.0 | 4.0 | 0.00 | 0.00 | 0.00 | 74 | 1010.3 |
| 20260510063838 | 72 | 67 | 0.0 | 1.0 | 0.00 | 0.00 | 0.00 | 74 | 1010.8 |
| 20260510061955 | 72 | 135 | 0.0 | 0.0 | 0.00 | 0.00 | 0.00 | 72 | 1009.8 |
| 20260510061037 | 73 | 157 | 4.0 | 5.0 | 0.00 | 0.00 | 0.00 | 71 | 1009.3 |
| 20260510060038 | 74 | 157 | 2.0 | 4.0 | 0.00 | 0.00 | 0.00 | 70 | 1009.2 |
| 20260510055037 | 74 | 158 | 5.0 | 7.0 | 0.00 | 0.00 | 0.00 | 69 | 1009.0 |
| 20260510054038 | 75 | 160 | 4.0 | 7.0 | 0.00 | 0.00 | 0.00 | 69 | 1008.9 |
| 20260510053136 | 75 | 159 | 5.0 | 9.0 | 0.00 | 0.00 | 0.00 | 68 | 1008.7 |
| 20260510051236 | 75 | 151 | 6.0 | 9.0 | 0.00 | 0.00 | 0.00 | 67 | 1008.6 |
| 20260510050336 | 75 | 156 | 8.0 | 11.0 | 0.00 | 0.00 | 0.00 | 67 | 1008.6 |
| 20260510045339 | 75 | 155 | 9.0 | 14.0 | 0.00 | 0.00 | 0.00 | 66 | 1008.5 |
| 20260510044340 | 75 | 148 | 8.0 | 12.0 | 0.00 | 0.00 | 0.00 | 65 | 1008.5 |
| 20260510043425 | 75 | 157 | 9.0 | 11.0 | 0.00 | 0.00 | 0.00 | 64 | 1008.4 |
| 20260510042443 | 76 | 157 | 7.0 | 9.0 | 0.00 | 0.00 | 0.00 | 63 | 1008.8 |
| 20260510041541 | 76 | 157 | 8.0 | 10.0 | 0.00 | 0.00 | 0.00 | 63 | 1008.8 |
| 20260510040625 | 76 | 157 | 5.0 | 8.0 | 0.00 | 0.00 | 0.00 | 63 | 1008.8 |
| 20260510035624 | 76 | 149 | 5.0 | 7.0 | 0.00 | 0.00 | 0.00 | 64 | 1009.0 |
| 20260510034626 | 77 | 149 | 5.0 | 7.0 | 0.00 | 0.00 | 0.00 | 63 | 1009.1 |
| 20260510033640 | 77 | 141 | 7.0 | 10.0 | 0.00 | 0.00 | 0.00 | 62 | 1008.9 |
| 20260510032624 | 77 | 157 | 5.0 | 7.0 | 0.00 | 0.00 | 0.00 | 61 | 1009.1 |
| 20260510031626 | 77 | 140 | 5.0 | 7.0 | 0.00 | 0.00 | 0.00 | 60 | 1008.9 |
| 20260510030722 | 78 | 146 | 6.0 | 7.0 | 0.00 | 0.00 | 0.00 | 58 | 1008.9 |
| 20260510025739 | 78 | 141 | 5.0 | 6.0 | 0.00 | 0.00 | 0.00 | 58 | 1008.7 |
| 20260510024724 | 79 | 157 | 6.0 | 8.0 | 0.00 | 0.00 | 0.00 | 57 | 1008.6 |
| 20260510023740 | 79 | 157 | 6.0 | 7.0 | 0.00 | 0.00 | 0.00 | 57 | 1008.6 |
| 20260510022725 | 79 | 157 | 7.0 | 8.0 | 0.00 | 0.00 | 0.00 | 57 | 1008.5 |
| 20260510021724 | 80 | 157 | 5.0 | 7.0 | 0.00 | 0.00 | 0.00 | 56 | 1008.5 |
| 20260510020723 | 80 | 157 | 5.0 | 6.0 | 0.00 | 0.00 | 0.00 | 55 | 1008.4 |
| 20260510020623 | 80 | 157 | 5.0 | 6.0 | 0.00 | 0.00 | 0.00 | 55 | 1008.3 |
| 20260510015625 | 81 | 157 | 6.0 | 7.0 | 0.00 | 0.00 | 0.00 | 55 | 1008.1 |
| 20260510014724 | 81 | 157 | 6.0 | 7.0 | 0.00 | 0.00 | 0.00 | 54 | 1008.1 |
| 20260510013725 | 82 | 157 | 6.0 | 8.0 | 0.00 | 0.00 | 0.00 | 53 | 1008.1 |
| 20260510012740 | 83 | 149 | 6.0 | 7.0 | 0.00 | 0.00 | 0.00 | 51 | 1007.9 |
| 20260510011726 | 84 | 153 | 5.0 | 6.0 | 0.00 | 0.00 | 0.00 | 48 | 1007.6 |
| 20260510010740 | 85 | 145 | 5.0 | 7.0 | 0.00 | 0.00 | 0.00 | 46 | 1007.5 |
| 20260510005724 | 87 | 139 | 5.0 | 7.0 | 0.00 | 0.00 | 0.00 | 45 | 1007.5 |
| 20260510004724 | 89 | 134 | 4.0 | 6.0 | 0.00 | 0.00 | 0.00 | 42 | 1007.5 |
| 20260510003724 | 90 | 157 | 3.0 | 4.0 | 0.00 | 0.00 | 0.00 | 40 | 1007.5 |
| 20260510002725 | 92 | 157 | 1.0 | 3.0 | 0.00 | 0.00 | 0.00 | 39 | 1007.3 |
| 20260509235824 | 95 | 168 | 2.0 | 5.0 | 0.00 | 0.00 | 0.00 | 34 | 1007.3 |
| 20260509234825 | 95 | 189 | 3.0 | 4.0 | 0.00 | 0.00 | 0.00 | 34 | 1007.5 |
| 20260509233841 | 95 | 200 | 1.0 | 4.0 | 0.00 | 0.00 | 0.00 | 35 | 1007.6 |
| 20260509232923 | 94 | 202 | 0.0 | 1.0 | 0.00 | 0.00 | 0.00 | 36 | 1007.6 |
| 20260509231924 | 93 | 173 | 3.0 | 6.0 | 0.00 | 0.00 | 0.00 | 35 | 1007.5 |
| 20260509230926 | 94 | 90 | 0.0 | 0.0 | 0.00 | 0.00 | 0.00 | 32 | 1007.5 |
| 20260509225925 | 95 | 157 | 3.0 | 5.0 | 0.00 | 0.00 | 0.00 | 33 | 1007.6 |
| 20260509224924 | 93 | 133 | 0.0 | 1.0 | 0.00 | 0.00 | 0.00 | 34 | 1007.6 |
| 20260509223925 | 92 | 67 | 1.0 | 2.0 | 0.00 | 0.00 | 0.00 | 34 | 1007.6 |
| 20260509222940 | 92 | 105 | 2.0 | 5.0 | 0.00 | 0.00 | 0.00 | 33 | 1007.6 |
| 20260509221024 | 93 | 67 | 1.0 | 4.0 | 0.00 | 0.00 | 0.00 | 33 | 1007.6 |
| 20260509220039 | 92 | 135 | 2.0 | 4.0 | 0.00 | 0.00 | 0.00 | 35 | 1007.7 |
| 20260509215122 | 90 | 342 | 2.0 | 4.0 | 0.00 | 0.00 | 0.00 | 37 | 1007.6 |
| 20260509213222 | 90 | 35 | 0.0 | 1.0 | 0.00 | 0.00 | 0.00 | 37 | 1007.9 |
| 20260509211224 | 88 | 76 | 4.0 | 5.0 | 0.00 | 0.00 | 0.00 | 39 | 1008.1 |
| 20260509204324 | 88 | 24 | 4.0 | 6.0 | 0.00 | 0.00 | 0.00 | 37 | 1008.5 |
| 20260509203423 | 89 | 22 | 4.0 | 7.0 | 0.00 | 0.00 | 0.00 | 40 | 1008.7 |
| 20260509202424 | 89 | 55 | 5.0 | 8.0 | 0.00 | 0.00 | 0.00 | 40 | 1008.7 |
| 20260509195624 | 89 | 337 | 3.0 | 5.0 | 0.00 | 0.00 | 0.00 | 43 | 1008.9 |
| 20260509194722 | 88 | 228 | 0.0 | 0.0 | 0.00 | 0.00 | 0.00 | 43 | 1009.1 |
| 20260509193723 | 87 | 298 | 3.0 | 5.0 | 0.00 | 0.00 | 0.00 | 44 | 1009.2 |
| 20260509192724 | 88 | 328 | 1.0 | 4.0 | 0.00 | 0.00 | 0.00 | 43 | 1009.4 |
| 20260509191724 | 87 | 302 | 1.0 | 4.0 | 0.00 | 0.00 | 0.00 | 43 | 1009.4 |
| 20260509190823 | 87 | 45 | 2.0 | 4.0 | 0.00 | 0.00 | 0.00 | 45 | 1009.5 |
| 20260509185822 | 88 | 285 | 1.0 | 3.0 | 0.00 | 0.00 | 0.00 | 42 | 1009.5 |
| 20260509184823 | 87 | 86 | 1.0 | 5.0 | 0.00 | 0.00 | 0.00 | 44 | 1009.8 |
| 20260509183840 | 87 | 290 | 2.0 | 5.0 | 0.00 | 0.00 | 0.00 | 44 | 1009.7 |
| 20260509182839 | 86 | 254 | 4.0 | 6.0 | 0.00 | 0.00 | 0.00 | 48 | 1010.0 |
| 20260509181823 | 86 | 356 | 1.0 | 3.0 | 0.00 | 0.00 | 0.00 | 47 | 1010.0 |
| 20260509180825 | 86 | 87 | 0.0 | 1.0 | 0.00 | 0.00 | 0.00 | 47 | 1010.0 |
| 20260509175823 | 86 | 243 | 3.0 | 7.0 | 0.00 | 0.00 | 0.00 | 49 | 1010.1 |
| 20260509174824 | 84 | 337 | 0.0 | 3.0 | 0.00 | 0.00 | 0.00 | 50 | 1010.2 |
| 20260509173824 | 84 | 249 | 2.0 | 5.0 | 0.00 | 0.00 | 0.00 | 50 | 1010.3 |
| 20260509172838 | 83 | 353 | 1.0 | 2.0 | 0.00 | 0.00 | 0.00 | 52 | 1010.4 |
| 20260509171823 | 82 | 261 | 6.0 | 8.0 | 0.00 | 0.00 | 0.00 | 51 | 1010.3 |
| 20260509170922 | 82 | 269 | 5.0 | 7.0 | 0.00 | 0.00 | 0.00 | 52 | 1010.3 |
| 20260509165925 | 81 | 281 | 3.0 | 6.0 | 0.00 | 0.00 | 0.00 | 51 | 1010.5 |
| 20260509164922 | 81 | 288 | 4.0 | 10.0 | 0.00 | 0.00 | 0.00 | 54 | 1010.6 |
| 20260509163923 | 80 | 271 | 7.0 | 10.0 | 0.00 | 0.00 | 0.00 | 54 | 1010.7 |
| 20260509162924 | 80 | 284 | 4.0 | 8.0 | 0.00 | 0.00 | 0.00 | 57 | 1010.8 |
| 20260509161923 | 80 | 291 | 5.0 | 9.0 | 0.00 | 0.00 | 0.00 | 56 | 1011.0 |
| 20260509160923 | 81 | 296 | 3.0 | 5.0 | 0.00 | 0.00 | 0.00 | 58 | 1010.8 |
| 20260509155939 | 80 | 346 | 4.0 | 6.0 | 0.00 | 0.00 | 0.00 | 59 | 1010.8 |
| 20260509154024 | 79 | 301 | 1.0 | 3.0 | 0.00 | 0.00 | 0.00 | 61 | 1010.7 |
| 20260509153122 | 78 | 16 | 1.0 | 3.0 | 0.00 | 0.00 | 0.00 | 63 | 1010.5 |
| 20260509152122 | 77 | 295 | 5.0 | 7.0 | 0.00 | 0.00 | 0.00 | 65 | 1010.4 |
| 20260509151122 | 76 | 328 | 6.0 | 8.0 | 0.00 | 0.00 | 0.00 | 66 | 1010.7 |
| 20260509150124 | 76 | 330 | 6.0 | 8.0 | 0.00 | 0.00 | 0.00 | 66 | 1010.7 |
| 20260509144122 | 75 | 356 | 4.0 | 8.0 | 0.00 | 0.00 | 0.00 | 65 | 1010.7 |
| 20260509143123 | 75 | 352 | 5.0 | 8.0 | 0.00 | 0.00 | 0.00 | 70 | 1010.7 |
| 20260509142123 | 75 | 310 | 6.0 | 8.0 | 0.00 | 0.00 | 0.00 | 70 | 1010.7 |
| 20260509141122 | 73 | 315 | 3.0 | 5.0 | 0.00 | 0.00 | 0.00 | 75 | 1010.7 |
| 20260509140222 | 72 | 293 | 6.0 | 8.0 | 0.00 | 0.00 | 0.00 | 76 | 1011.0 |
| 20260509134222 | 70 | 279 | 3.0 | 6.0 | 0.00 | 0.00 | 0.00 | 77 | 1011.2 |